Tracking 32936 objects as of 17-Jan-2026
HD Live streaming from Space Station
objects crossing your sky now

HULIANWANG DIGUI-20

Track HULIANWANG DIGUI-20 now!
10-day predictions


NORAD ID: 63687
Int'l Code: 2025-086A
Perigee: 1,173.9 km
Apogee: 1,176.1 km
Inclination: 86.5 °
Period: 108.7 minutes
Semi major axis: 7546 km
RCS: Unknown
Launch date: April 28, 2025
Source: People's Republic of China (PRC)
Launch site: Wenchang Satellite Launch Center (WSC)
Your satellite tracking list
Your tracking list is empty




NASA's NSSDC Master Catalog

Two Line Element Set (TLE):
1 63687U 25086A   26016.62638523  .00000032  00000-0  41112-4 0  9999
2 63687  86.5068   4.1533 0001449  74.2385 285.8909 13.24416137 34817
Source of the keplerian elements: AFSPC